Location: Góry Miechowskie
(50.3599°N, 20.1803°E)
Time: 02:30:38
(UTC+00:00)

Resurs 1-4 Rocket - Pass Details

Date: 24 September 2024
Orbit: 798 x 813 km, 98.8° (Epoch: 14 October)

Event Time Altitude Azimuth Distance (km) Brightness Sun altitude
Rises 02:08:14 0° 7° (N) 3,319 5.8 -22.4°
Reaches altitude 10° 02:10:51 10° 356° (N) 2,384 4.8 -22.0°
Maximum altitude 02:15:13 27° 300° (WNW) 1,490 3.2 -21.4°
Enters shadow 02:15:18 27° 299° (WNW) 1,490 3.2 -21.4°
